Flag for Canada Weather past 2 weeks in Mississauga, Ontario, Canada

Now
55 °F

Passing clouds.


Feels Like: 53 °F
Forecast: 45 / 66 °F
Wind: 8 mph from Northwest

Location: Toronto Pearson International Airport

Current Time: Sep 16, 2014 at 9:56:15 PM

Latest Report: Sep 16, 2014 at 9:00 PM


Visibility: 15 mi

Pressure: 30.06 "Hg

Humidity: 63%

Dew point: 43 °F

Location of MississaugaLocation

Historic Weather in Mississauga — Graph

°F

Mississauga temperature yesterday

Maximum temperature yesterday: 64 °F (at 1:00 PM)
Minimum temperature yesterday: 50 °F (at 7:00 AM)
Average temperature yesterday: 57 °F

Past Weeks' High & Low Weather Summary

 TemperatureHumidityPressure
High88 °F (Sep 5, 3:00 PM)94% (Sep 2, 2:00 AM)30.36 "Hg (Sep 2, 2:00 AM)
Low43 °F (Sep 14, 7:00 AM)41% (Sep 8, 4:00 PM)29.52 "Hg (Sep 11, 4:00 AM)
Average64 °F74%30.05 "Hg
* Reported Sep 1 8:00 PM — Sep 16 8:00 PM, Mississauga, Weather by CustomWeather, © 2014

Note: Actual official high and low records may vary slightly from our data, if they occured in-between our weather recording intervals... More about our weather records

Advertising

Mississauga weather history for previous 24 hours

 ConditionsComfort  
Time TempWeatherWind HumidityBarometerVisibility
8:00 PM
Sep 16
59 °FPassing clouds.10 mph51%30.06 "Hg15 mi
7:00 PM61 °FPassing clouds.14 mph48%30.04 "Hg15 mi
6:00 PM64 °FPartly sunny.13 mph46%30.04 "Hg15 mi
5:00 PM63 °FPartly sunny.12 mph45%30.04 "Hg15 mi
4:00 PM63 °FPartly sunny.13 mph45%30.05 "Hg15 mi
3:47 PM64 °FPartly sunny.14 mph46%30.05 "Hg15 mi
3:00 PM64 °FScattered clouds.15 mph46%30.05 "Hg15 mi
2:00 PM64 °FPartly sunny.12 mph46%30.06 "Hg15 mi
1:00 PM64 °FPartly sunny.15 mph46%30.06 "Hg15 mi
12:00 PM63 °FPassing clouds.13 mph45%30.09 "Hg15 mi
11:00 AM61 °FPassing clouds.16 mph48%30.10 "Hg15 mi
10:00 AM59 °FPassing clouds.13 mph55%30.11 "Hg15 mi
9:00 AM55 °FPassing clouds.13 mph67%30.09 "Hg15 mi
8:00 AM52 °FPassing clouds.8 mph82%30.09 "Hg15 mi
7:00 AM50 °FPassing clouds.9 mph88%30.08 "Hg15 mi
6:00 AM50 °FPassing clouds.9 mph88%30.06 "Hg15 mi
5:00 AM48 °FPassing clouds.6 mph94%30.06 "Hg15 mi
4:00 AM52 °FPassing clouds.8 mph88%30.04 "Hg15 mi
3:00 AM52 °FPassing clouds.9 mph88%30.03 "Hg15 mi
2:00 AM55 °FPassing clouds.13 mph82%30.03 "Hg15 mi
1:00 AM55 °FMostly cloudy.6 mph88%30.04 "Hg15 mi
12:00 AM55 °FSprinkles. Mostly cloudy.7 mph88%30.05 "Hg15 mi
11:00 PM
Sep 15
55 °FSprinkles. Mostly cloudy.5 mph94%30.05 "Hg15 mi
10:00 PM55 °FSprinkles. Mostly cloudy.5 mph94%30.06 "Hg15 mi
9:00 PM55 °FMostly cloudy.5 mph94%30.06 "Hg15 mi
Weather by CustomWeather, © 2014

See weather overviewHow to use our weather pages